Wind_Speed
29 31 31 31 30 28 25 24 23 21 19 17 16 16 15 15 14 14 15 17 18 18 17 16 14 13 11 9 8 6 4 3 2 3 4 5 7 9 11 13 15 16 17 18 18 19 20 20 20 21 22 23 23 23 23 23 24 24 24 24 25 25 26 26 26 26 26 25 25
29 30 31 30 28 23 19 16 16 16 15 15 15 15 15 15 15 16 17 17 17 17 16 15 13 11 9 6 5 3 2 2 3 4 6 8 10 13 15 16 17 17 17 18 18 19 19 20 21 22 23 23 23 23 24 24 24 24 25 25 26 26 26 26 26 26 25 25 25
29 29 28 26 22 16 11 11 12 14 15 15 15 16 16 16 17 17 18 17 16 15 14 12 10 7 5 3 2 1 2 4 6 8 10 13 15 17 17 17 16 16 16 17 18 19 19 20 22 23 24 24 24 24 25 25 25 25 26 26 27 26 26 26 25 25 25 24 24
28 26 24 20 15 12 10 11 14 15 16 16 16 17 17 18 18 19 18 17 15 13 11 8 6 4 3 2 2 3 6 9 11 13 15 16 16 16 16 15 15 16 17 18 18 19 20 22 24 25 25 25 26 26 26 27 27 26 27 27 26 26 25 25 25 24 24 24 23
24 22 19 15 12 10 11 13 16 17 17 18 18 18 19 19 20 19 18 16 13 10 8 6 5 3 1 2 5 8 11 13 14 15 15 15 14 14 14 14 15 16 17 18 19 20 22 24 25 25 26 26 26 27 27 27 27 26 26 26 26 25 25 25 24 24 24 23 23
19 16 14 11 10 12 14 17 18 18 18 19 20 20 20 20 19 17 15 13 10 8 6 5 3 1 3 6 10 12 14 14 14 13 13 12 12 12 13 15 16 17 18 19 21 23 24 25 26 26 27 27 27 27 27 27 26 26 26 26 26 25 25 24 24 24 24 24 24
13 10 9 10 12 15 18 19 19 20 20 21 21 21 20 19 17 14 12 11 9 7 5 3 2 5 8 11 13 14 13 12 11 10 9 10 12 13 14 15 16 17 19 22 24 24 25 25 26 26 27 27 27 27 26 26 26 26 26 26 26 25 25 24 24 24 24 24 24
9 8 9 12 16 18 20 21 21 21 21 21 20 19 17 15 13 12 11 10 8 5 2 3 7 10 12 13 13 12 10 9 8 8 9 11 12 13 14 15 16 18 21 23 24 24 24 24 25 26 26 26 26 26 25 25 25 25 25 25 25 25 25 24 24 24 24 24 24
8 10 12 15 18 20 21 21 22 22 20 18 17 15 13 12 11 10 9 7 4 3 5 8 10 11 12 11 9 8 7 7 8 10 11 12 13 14 15 16 18 19 21 22 23 23 23 23 24 24 24 24 24 25 25 24 24 24 25 25 25 25 25 25 24 24 24 24 25
10 13 15 17 19 21 21 21 20 18 17 15 14 12 11 10 9 7 5 4 4 6 8 9 10 10 8 7 6 5 6 8 10 11 12 13 14 16 17 18 19 20 21 22 21 21 21 22 22 23 23 24 24 25 25 25 25 25 26 26 26 26 26 26 26 25 25 26 26
13 15 16 18 19 20 20 19 16 14 13 13 12 10 9 7 6 5 4 5 7 8 8 8 7 6 4 4 4 6 8 9 11 12 13 14 15 17 18 19 19 20 20 20 20 20 21 22 23 24 24 25 26 26 26 26 26 27 27 27 27 27 27 27 27 27 27 26 26
15 16 17 17 18 18 17 15 14 13 12 11 10 8 7 6 6 5 5 6 7 7 6 5 3 2 3 5 6 8 9 10 11 13 14 15 16 17 18 18 19 19 20 20 21 22 22 23 24 25 26 26 26 26 27 27 27 27 28 28 28 28 28 28 28 28 27 27 27
16 17 16 15 15 15 14 13 12 11 10 9 8 7 6 6 5 4 4 4 4 3 2 0 2 3 5 7 8 9 10 11 12 14 15 17 18 18 19 19 20 21 21 22 23 23 24 24 25 25 26 26 27 27 27 27 27 27 27 27 28 28 28 28 28 28 27 27 27
16 16 16 14 14 13 12 11 11 10 9 8 7 6 5 4 3 3 3 2 2 1 2 3 4 5 6 7 9 10 11 13 14 15 17 18 19 20 21 22 22 22 23 23 24 24 24 25 25 25 26 27 27 27 27 27 27 27 27 27 27 27 27 27 27 27 26 26 26
16 16 15 14 13 12 11 10 9 8 8 7 6 5 4 3 3 3 3 2 2 2 3 3 5 6 7 9 10 11 13 14 16 17 18 19 21 21 22 22 23 23 23 24 24 24 25 25 25 26 26 27 27 28 28 27 27 27 27 27 27 27 27 27 27 27 26 26 26
15 15 14 13 12 11 10 9 8 7 6 6 4 3 3 3 2 3 3 3 2 3 3 5 6 7 9 10 11 13 14 16 17 18 20 21 22 22 23 23 23 23 24 24 24 25 25 26 26 26 27 27 28 28 28 28 28 28 28 28 28 28 28 28 28 27 27 26 26
14 14 13 11 10 9 8 8 7 6 5 4 3 2 2 2 3 3 3 3 3 3 5 6 7 9 10 11 13 14 16 17 18 19 21 22 22 23 23 23 24 24 24 24 25 25 26 26 27 27 27 27 28 28 28 28 28 28 28 29 29 29 29 29 29 28 28 28 27
13 12 11 9 8 8 7 6 5 4 4 3 2 2 2 2 3 3 3 2 3 4 6 7 9 10 12 13 14 16 17 18 19 21 22 22 23 23 23 23 24 24 24 24 25 26 27 27 28 28 28 28 28 29 29 29 29 29 30 30 30 30 30 30 29 29 29 29 29
11 10 9 7 6 5 5 4 4 3 2 2 1 1 2 2 2 2 2 3 4 6 7 9 11 12 13 15 16 17 18 19 20 22 22 23 23 23 23 23 24 24 25 25 26 27 28 28 29 29 29 29 29 29 30 30 30 30 30 30 30 30 30 30 30 30 29 29 29
9 8 7 6 5 4 4 3 2 2 1 1 1 1 2 2 2 2 3 4 5 7 9 11 12 13 15 16 17 18 19 20 21 22 23 23 23 23 23 24 24 25 26 27 28 28 29 29 29 29 29 29 29 30 30 30 30 30 30 30 30 30 30 29 29 29 28 28 28
7 6 5 5 4 3 2 1 1 0 0 1 1 2 2 2 2 2 4 6 7 9 11 12 13 14 15 16 17 19 20 21 22 22 23 23 23 23 24 25 26 27 28 28 29 29 29 29 29 29 29 29 29 30 30 30 30 30 30 30 29 29 29 28 28 27 27 27 27
6 5 4 3 2 2 1 1 1 0 1 1 1 1 1 1 3 4 6 7 9 10 11 12 13 14 16 17 19 20 21 22 22 23 23 23 24 25 26 26 27 28 28 29 29 29 29 29 29 29 29 29 29 30 30 30 30 30 30 30 29 29 29 28 28 28 28 27 27
4 3 3 2 3 3 2 2 1 1 1 1 1 1 2 3 5 6 8 9 10 11 12 13 14 15 17 19 20 21 22 23 23 23 24 24 25 26 26 27 28 28 28 29 29 29 29 29 29 29 29 29 29 29 29 29 29 29 29 29 29 29 29 29 29 29 29 29 29
3 3 3 4 4 4 3 2 1 2 1 1 2 3 4 6 7 8 9 10 10 11 12 14 15 17 19 20 21 22 23 23 23 24 24 25 25 26 26 27 27 28 28 28 28 28 28 28 28 28 28 28 27 27 27 27 27 26 26 26 26 27 27 28 28 28 28 29 29
4 4 5 5 5 4 3 2 2 2 2 3 4 5 6 8 9 10 10 11 11 12 13 15 17 19 20 22 22 22 23 23 23 23 24 24 25 25 26 26 26 27 27 27 27 27 27 27 26 26 26 26 26 25 25 24 24 23 23 23 24 24 25 26 27 27 27 28 28
4 5 5 5 4 3 3 3 4 4 4 5 6 7 8 9 10 10 11 11 12 13 15 17 19 20 21 22 22 22 21 21 22 22 23 24 25 25 26 26 26 26 27 26 26 26 26 25 25 25 25 25 25 24 24 23 23 23 23 23 23 24 24 25 26 26 26 27 27
4 5 5 4 4 5 6 6 6 7 7 8 8 9 10 10 10 11 11 12 14 15 17 19 20 21 21 21 21 20 20 21 22 22 23 24 25 26 26 27 27 26 26 26 25 25 24 24 24 24 25 25 25 24 23 23 24 23 23 23 23 24 24 24 25 26 26 27 27
6 7 8 9 9 9 9 9 9 9 9 9 9 10 10 11 11 11 12 14 15 17 19 20 20 20 20 20 20 20 21 22 23 24 25 26 26 26 27 26 26 26 26 25 25 25 25 25 26 26 26 25 25 25 24 24 24 23 23 23 23 24 24 24 25 26 26 27 28
10 11 11 10 10 10 11 11 11 11 10 10 10 10 10 11 11 12 13 15 18 19 20 20 20 20 19 19 20 21 22 23 24 25 25 26 26 26 26 26 26 26 25 25 25 26 26 27 27 27 26 26 25 24 24 24 24 24 24 24 24 24 24 25 26 27 28 28 29
12 12 11 11 11 11 12 12 12 11 10 10 10 10 10 11 12 13 15 17 19 21 21 20 19 19 19 20 21 22 23 24 24 25 25 25 26 26 26 26 26 26 26 26 26 26 27 27 26 25 25 24 23 23 24 24 24 24 24 25 25 25 26 26 27 28 28 28 29
11 11 10 10 11 11 11 11 11 10 10 10 10 10 10 11 13 15 17 19 21 21 20 19 19 19 19 20 21 22 23 24 24 25 25 25 26 26 26 26 26 26 26 26 26 26 26 25 24 24 23 23 23 23 24 25 25 25 25 25 26 26 27 27 27 27 28 28 28
10 9 9 10 10 10 10 10 10 10 10 9 10 10 11 13 15 17 19 21 21 20 19 18 18 18 19 20 21 22 23 24 25 25 26 26 26 26 26 26 26 26 26 26 25 25 24 23 23 23 23 23 24 25 25 26 26 26 26 26 26 26 26 26 26 26 27 27 27
8 8 9 10 10 10 10 10 9 9 9 9 10 11 13 15 18 19 20 20 19 17 16 16 17 18 19 21 22 23 24 25 25 26 26 26 26 26 26 26 26 26 25 25 24 23 23 23 23 23 24 25 26 27 27 27 27 26 26 25 25 26 26 26 27 27 28 28 28
9 10 10 10 10 10 9 9 9 8 9 10 12 13 16 18 19 20 19 17 15 15 15 17 18 20 21 23 23 24 25 26 26 26 25 25 25 25 26 26 26 25 24 23 22 22 23 23 24 25 26 27 27 27 27 26 26 25 25 25 26 27 27 28 28 29 29 29 29
11 11 12 11 11 10 9 8 8 9 10 12 14 16 17 18 18 16 15 14 14 16 17 19 21 22 23 24 24 25 25 25 25 25 25 25 25 26 26 26 25 24 23 22 22 23 24 25 26 27 27 27 27 26 25 25 24 24 25 25 26 27 28 29 29 29 30 30 29
13 13 13 11 10 9 8 8 9 10 12 14 16 17 17 16 14 13 13 15 16 18 20 21 22 23 24 24 24 24 24 24 25 25 25 25 26 26 26 25 25 23 23 22 23 24 26 27 27 28 27 27 26 25 24 24 23 23 24 25 26 28 29 29 30 30 30 30 30
12 11 10 8 7 7 7 9 10 12 14 16 16 15 14 13 12 14 15 17 19 20 21 22 22 23 23 23 24 24 24 24 25 25 26 26 26 25 24 24 23 23 23 23 24 26 27 27 27 27 27 26 25 25 24 24 23 23 24 25 26 27 28 29 30 30 30 30 30
5 4 4 4 6 7 9 11 13 14 15 15 14 12 12 13 14 16 18 19 20 20 21 22 22 22 23 23 24 24 25 25 25 25 26 25 25 24 23 22 22 22 23 24 25 26 27 27 27 27 26 26 26 25 24 23 23 24 24 24 25 26 27 29 29 29 29 29 29
4 5 6 8 9 11 13 14 14 14 13 12 12 12 13 15 17 18 19 20 20 20 21 21 22 22 23 24 24 25 25 25 25 25 25 24 23 21 20 20 21 23 24 25 26 27 27 27 27 26 26 26 26 25 24 23 23 23 23 23 23 25 26 27 27 26 26 26 26
7 8 10 11 12 13 14 13 13 12 12 12 13 14 15 17 18 19 20 20 20 20 21 21 22 23 24 24 24 25 25 25 25 24 23 22 20 19 19 20 22 23 25 26 26 27 26 26 26 26 26 26 25 25 23 22 21 21 21 21 21 22 23 22 22 21 20 21 21
10 11 11 12 12 12 12 12 12 12 13 14 14 16 17 18 18 19 19 19 20 20 21 22 23 24 24 24 24 24 25 25 24 23 21 19 18 18 19 21 23 24 25 26 26 26 26 25 26 26 26 26 25 24 23 21 20 19 19 19 19 18 18 18 17 17 17 18 19
Wind_Direction
299 299 299 299 296 288 274 258 245 234 224 214 204 196 188 182 183 176 165 158 153 149 144 141 139 135 131 125 119 112 103 92 55 22 360 346 335 327 323 321 320 318 316 312 308 303 300 297 295 291 286 282 280 280 280 280 279 279 278 277 277 276 276 276 276 276 276 276 276
297 297 297 298 296 289 273 248 231 217 205 193 185 181 176 170 164 157 150 145 142 139 135 132 131 128 125 122 117 102 76 36 2 347 338 328 320 316 314 313 313 311 309 305 302 299 296 294 291 286 282 281 282 282 281 280 280 279 278 277 277 277 277 276 276 277 277 277 277
295 295 295 295 291 281 255 222 203 193 184 177 171 167 163 158 153 146 140 136 133 131 129 127 128 126 122 119 103 55 1 343 335 328 320 314 310 310 310 309 308 305 301 298 296 294 293 291 285 281 280 281 282 282 281 280 280 279 278 278 277 277 277 277 277 277 278 278 277
290 290 290 287 277 261 235 201 182 172 167 162 157 154 150 147 143 138 134 131 129 128 127 128 130 129 121 95 17 339 327 322 319 315 312 309 308 309 308 307 302 297 294 292 291 291 289 284 280 278 279 280 281 280 280 280 279 279 278 278 277 277 277 276 277 277 278 278 278
284 283 280 273 257 234 208 186 172 165 159 154 149 144 141 138 135 134 132 131 130 131 133 136 134 128 99 347 328 322 318 315 312 310 310 310 309 308 303 297 293 292 291 290 288 286 282 278 277 278 278 279 279 278 278 279 279 278 278 277 277 276 276 276 277 277 278 278 278
274 271 264 249 225 199 181 171 165 160 154 148 143 139 135 134 135 137 137 137 138 139 141 139 129 84 337 325 321 318 315 312 310 310 310 308 303 297 293 291 291 291 289 287 283 279 276 276 277 278 278 278 278 278 278 278 278 278 277 277 277 277 277 277 277 278 278 278 278
258 248 231 207 187 174 165 159 155 150 145 141 138 135 134 136 139 141 142 144 145 144 139 120 11 334 326 323 320 317 314 312 310 308 301 293 289 288 290 291 291 290 287 281 277 276 277 278 278 278 278 278 277 278 278 278 278 278 277 277 277 278 278 277 278 278 278 278 278
233 208 185 173 167 161 156 152 148 143 139 137 136 137 139 139 140 140 140 139 133 123 87 357 337 331 326 323 320 317 314 311 303 292 283 280 283 287 289 289 290 288 283 278 276 276 278 278 278 277 277 277 277 278 279 280 280 279 279 278 279 279 279 278 279 279 279 279 279
192 171 161 157 154 152 149 147 144 141 139 139 139 141 142 140 138 134 129 119 97 41 357 342 335 330 326 323 320 316 309 296 282 275 275 279 283 285 286 287 287 284 280 276 276 277 278 278 278 278 279 280 280 281 283 283 283 282 281 281 281 281 281 281 281 281 280 280 280
158 151 148 146 144 143 142 142 142 142 141 140 138 137 136 133 127 119 103 70 23 359 348 342 336 331 328 323 315 302 287 276 273 275 279 282 283 284 284 284 282 279 277 276 277 279 281 281 282 283 284 285 286 286 287 287 286 286 285 285 285 284 284 284 283 282 282 281 281
150 147 144 141 139 139 138 138 140 140 137 133 130 127 121 110 94 77 52 23 6 358 351 344 339 335 323 303 281 273 272 274 278 281 283 283 284 284 284 282 279 277 277 280 282 285 286 287 288 288 289 289 289 289 289 289 289 288 287 287 286 286 285 285 284 283 282 282 282
149 146 144 142 141 139 138 136 134 131 127 124 118 109 94 76 63 52 38 22 11 3 356 350 343 302 264 259 261 267 274 280 283 284 285 286 286 286 285 283 281 281 283 285 287 288 289 289 290 290 290 290 290 290 290 290 290 289 288 288 287 286 285 285 284 283 282 282 281
149 146 145 146 145 142 137 130 126 123 118 112 103 92 81 72 63 53 45 39 29 23 18 256 230 238 247 254 263 271 278 282 284 285 286 287 287 286 285 283 283 284 285 286 287 288 289 289 290 290 291 291 291 291 291 291 291 291 290 289 289 287 286 285 285 284 283 282 281
148 147 146 146 145 141 134 126 122 117 111 105 99 94 90 84 76 74 77 82 99 148 194 218 232 243 253 262 270 275 279 282 284 285 285 285 285 284 283 282 283 284 285 286 287 288 289 289 290 290 291 291 292 292 292 292 292 292 291 291 290 289 288 287 287 286 285 284 282
147 146 145 143 141 137 130 125 119 113 110 108 107 103 99 97 97 107 120 139 169 195 220 237 248 255 263 270 275 279 281 283 284 284 285 284 284 283 282 282 283 284 285 286 287 288 288 289 290 290 291 292 292 293 293 293 292 292 292 291 290 290 289 289 289 288 287 286 284
145 144 142 140 137 132 126 122 118 116 116 117 113 107 106 113 125 138 149 164 190 218 238 251 259 265 270 275 279 282 283 284 285 284 284 284 283 282 282 282 283 284 285 286 287 288 288 289 290 290 291 292 292 293 293 293 293 292 292 291 290 290 289 289 289 288 288 287 286
142 141 139 135 131 126 122 121 121 124 126 124 116 112 122 138 151 158 166 182 214 238 252 260 268 274 278 281 283 285 285 285 285 285 284 283 283 282 282 283 283 284 286 287 288 289 289 290 290 291 292 292 292 293 293 293 292 292 291 290 290 289 289 288 288 287 287 286 285
138 136 134 130 127 124 123 126 131 136 135 126 115 119 137 155 164 174 189 216 243 258 268 273 279 283 285 286 286 286 286 286 286 285 284 283 283 283 283 283 284 285 286 287 288 289 290 291 291 292 292 292 292 292 291 291 290 290 289 289 288 287 287 286 286 286 285 285 284
134 133 130 128 127 128 132 136 141 139 129 113 110 125 149 166 179 197 224 250 267 277 283 285 287 288 288 288 288 287 287 286 286 285 285 284 284 284 284 285 286 287 288 289 290 291 291 291 291 291 291 291 290 290 289 289 288 287 287 286 285 285 285 284 284 283 283 283 282
131 130 129 129 131 133 135 134 130 120 107 115 144 155 165 177 198 229 256 274 283 287 288 289 289 289 289 289 288 287 286 285 285 285 285 285 285 286 286 287 288 289 290 290 291 291 291 291 291 290 290 290 289 288 287 287 286 285 284 284 283 283 282 282 282 282 281 281 281
129 127 126 126 126 123 115 103 82 81 150 178 180 177 179 195 231 267 283 288 289 289 289 289 290 291 290 289 288 286 285 285 285 286 286 287 287 288 289 289 290 290 291 291 291 290 290 290 289 289 289 288 287 286 286 285 284 283 283 282 282 281 281 281 280 280 281 281 281
125 121 116 108 91 63 34 18 3 256 212 198 185 185 209 258 286 292 292 290 289 288 289 290 291 291 290 289 288 287 287 287 288 288 288 289 289 290 290 290 291 291 290 290 290 290 289 289 288 288 287 287 286 285 285 284 283 282 282 281 280 280 280 279 279 279 279 279 279
114 102 81 53 30 18 9 354 309 255 232 218 220 251 279 295 295 291 288 286 285 286 288 289 290 291 290 290 290 291 291 291 291 290 290 291 291 291 291 291 290 290 290 289 289 289 288 288 288 288 287 286 286 285 285 284 283 282 281 281 281 280 280 280 279 279 279 278 278
81 60 41 28 21 15 3 333 289 265 257 256 274 289 292 290 287 284 282 282 283 285 288 290 291 291 292 293 293 293 293 293 293 293 292 292 292 292 291 291 290 290 289 289 289 288 288 288 288 288 288 287 287 286 286 285 285 284 284 284 283 283 282 282 281 280 280 279 278
56 45 36 28 19 9 347 309 281 268 265 269 275 280 281 280 279 278 279 280 283 286 289 290 292 293 294 294 295 295 295 295 295 295 294 294 294 293 293 292 291 290 290 289 290 290 290 290 290 290 290 290 290 290 290 290 289 289 289 288 288 287 286 285 284 282 281 280 279
50 40 32 22 5 335 297 273 260 254 254 261 269 273 273 274 275 277 279 283 286 289 290 292 293 294 295 296 296 296 296 296 296 296 296 296 296 295 294 294 293 292 292 292 292 293 293 294 294 294 295 296 296 296 296 295 294 293 292 292 291 290 290 289 288 286 284 283 282
26 10 351 326 300 274 256 248 244 246 252 260 266 270 272 274 277 279 283 286 289 291 292 293 294 295 296 296 297 297 298 298 299 298 298 298 297 296 296 295 295 295 295 295 296 297 298 298 298 299 299 300 300 299 298 297 296 295 295 294 293 293 292 290 289 288 287 286 284
337 325 310 295 278 260 246 241 242 248 255 262 266 270 274 277 280 284 287 290 292 292 293 294 295 296 297 297 298 299 300 300 300 299 299 298 297 297 297 297 297 297 298 299 300 300 300 300 300 300 300 300 299 298 297 297 297 297 297 296 295 294 292 291 289 289 288 286 285
313 305 293 278 263 250 242 242 246 252 259 264 268 272 277 281 285 289 292 293 293 293 293 294 296 296 297 298 300 301 301 301 300 299 299 298 298 298 298 299 299 300 301 301 302 302 301 301 301 301 300 299 298 297 297 297 297 298 297 296 295 293 291 290 289 287 286 285 284
298 288 274 259 249 245 244 248 253 259 264 267 271 275 280 286 290 292 293 293 293 293 293 295 296 297 299 300 301 302 301 301 300 300 300 300 300 300 300 301 302 302 303 303 303 303 302 302 301 301 300 300 299 298 298 298 298 298 298 296 294 292 291 289 288 286 285 283 282
284 273 259 249 245 246 251 257 263 267 269 271 274 279 284 288 290 291 291 292 292 293 294 296 297 299 301 302 303 303 302 302 301 301 301 301 302 302 303 303 304 304 304 305 305 304 304 303 303 302 301 301 301 301 300 300 300 299 297 295 294 292 290 288 286 283 282 280 278
273 262 251 246 247 252 260 266 270 271 271 273 277 282 285 287 289 291 293 293 293 294 296 299 302 304 305 306 305 304 303 303 303 303 303 303 304 304 305 305 305 306 306 307 307 306 305 305 304 303 303 303 304 304 303 301 300 298 296 294 292 289 287 284 281 279 277 276 275
265 257 250 248 251 257 264 269 270 271 272 276 281 285 288 290 292 294 295 295 296 298 303 306 309 310 309 308 307 305 304 303 303 303 304 304 305 306 306 307 307 308 308 309 308 307 307 306 306 305 305 305 305 304 303 301 299 297 294 292 289 286 283 280 278 276 274 273 273
260 257 254 253 256 260 265 268 269 272 276 282 287 291 293 295 296 297 297 300 304 309 312 313 313 311 309 307 306 304 304 303 304 304 305 306 307 308 308 308 309 309 310 310 310 309 308 308 308 308 308 308 306 305 303 301 298 295 292 289 286 284 282 280 278 275 274 273 271
263 260 259 259 259 262 265 268 273 279 286 292 295 296 298 298 299 301 306 311 315 316 315 313 311 309 307 305 304 303 304 304 305 306 307 309 309 310 309 309 310 310 311 311 311 311 311 312 311 311 311 309 307 305 303 300 296 292 289 287 285 284 282 280 278 276 275 273 271
269 267 264 262 261 262 267 276 286 294 298 299 299 299 300 302 306 312 317 319 318 317 314 312 309 307 305 304 304 304 305 306 307 308 309 310 311 311 310 310 310 311 311 312 313 314 314 314 314 313 312 310 307 304 302 298 294 290 288 286 284 283 283 282 280 278 275 273 271
280 275 270 265 265 272 283 294 300 303 302 301 300 302 306 312 317 320 320 319 318 315 312 309 307 305 304 304 305 306 307 308 309 310 311 311 311 311 310 310 311 312 313 315 316 317 317 317 316 314 312 309 306 303 300 297 293 289 287 285 284 283 283 282 280 277 275 273 271
306 305 301 296 298 302 305 307 306 304 303 303 307 312 318 321 322 321 319 318 315 313 310 307 306 305 305 306 307 308 308 309 310 310 311 311 311 311 311 311 312 314 316 318 319 320 319 318 316 314 312 309 306 303 299 296 293 289 286 285 284 283 282 283 280 277 274 273 270
5 349 333 323 317 314 312 310 309 308 310 316 320 323 323 322 320 318 316 314 312 310 307 306 306 306 307 308 308 309 309 309 310 311 311 311 311 312 313 314 316 317 319 321 322 322 321 318 316 314 312 310 307 304 300 297 293 290 288 287 287 286 285 285 283 279 276 274 272
340 331 325 321 318 316 315 316 317 320 323 325 325 323 321 319 317 315 313 311 310 308 307 307 307 308 309 310 310 310 310 311 312 313 313 313 313 314 316 318 320 321 323 324 324 323 321 318 316 314 313 311 309 306 303 299 296 293 293 293 294 293 293 292 291 289 286 284 283
329 326 324 323 324 325 326 327 328 327 326 324 322 320 318 316 314 313 312 311 310 309 309 309 310 310 311 311 311 311 312 313 315 317 317 317 318 319 321 323 324 325 325 325 324 322 320 318 316 314 313 312 312 310 308 306 303 301 301 302 302 303 306 308 309 307 304 301 298
Height
771 770 768 767 766 765 765 764 764 764 765 766 766 767 768 769 771 772 773 774 775 777 778 780 781 782 783 784 785 786 786 786 787 787 787 789 791 792 794 795 796 796 797 797 798 798 798 798 798 797 796 796 795 795 794 794 794 793 793 792 791 791 790 789 788 787 786 786 785
768 768 767 766 765 764 764 764 763 764 764 765 766 767 768 769 771 772 773 775 776 777 778 780 781 782 783 783 784 784 785 786 786 786 787 788 790 792 793 794 795 795 796 796 797 797 797 796 796 795 795 794 794 793 793 792 792 791 791 790 790 789 788 787 786 786 785 784 783
766 766 765 764 764 764 764 763 763 763 764 765 766 767 768 769 771 772 773 775 776 777 778 779 780 781 782 782 783 784 784 785 785 786 787 789 790 791 792 793 794 794 795 796 796 796 795 795 794 793 793 792 792 791 791 791 791 790 789 788 788 787 786 785 784 784 783 782 781
764 763 763 763 763 763 763 763 763 764 764 765 766 767 768 769 771 772 774 775 776 777 778 779 780 781 781 782 783 783 784 784 785 786 787 789 790 791 791 792 793 793 794 794 794 794 793 793 792 792 791 791 790 790 789 789 789 788 787 787 786 785 785 783 782 782 781 780 780
762 761 761 761 761 761 762 763 763 764 765 766 766 767 768 769 771 772 773 775 776 777 778 779 780 781 781 782 783 783 784 784 785 786 787 788 789 790 791 791 792 792 792 792 792 792 791 791 791 790 790 789 789 788 787 787 787 786 786 785 784 783 782 781 781 780 779 779 778
760 759 759 759 760 760 761 762 762 763 764 765 766 767 768 770 771 772 773 774 776 777 778 779 780 781 782 782 783 783 784 785 785 786 787 788 788 789 790 790 791 791 791 791 790 790 790 789 789 788 788 787 787 786 786 786 785 784 783 782 782 781 781 780 779 778 778 777 776
758 758 758 758 758 759 760 761 762 763 764 765 766 767 769 770 770 771 772 774 775 776 778 779 780 781 781 781 782 783 784 784 785 786 787 787 788 788 788 789 789 789 789 788 788 788 788 787 787 786 786 785 785 784 784 783 783 782 781 780 780 779 779 778 777 777 776 776 775
758 758 758 758 758 759 760 761 762 763 764 765 766 768 769 769 770 771 772 773 775 776 777 778 779 780 780 781 782 783 783 784 785 786 786 786 787 787 787 787 787 787 787 787 786 786 786 786 785 784 784 783 783 782 781 781 781 780 779 778 777 777 777 776 776 775 775 774 773
759 759 759 759 759 759 760 761 762 763 764 766 766 767 768 769 770 771 772 773 774 776 776 777 778 779 780 781 782 782 783 784 784 785 785 785 785 785 785 785 785 785 785 785 785 784 784 784 783 782 782 781 781 780 780 780 779 778 777 776 776 775 775 774 774 773 773 772 771
760 760 760 760 761 761 761 762 763 764 765 766 767 768 768 769 770 771 772 773 774 775 776 776 777 779 780 781 781 782 783 783 783 784 784 784 784 784 784 784 783 783 783 783 783 783 782 782 781 781 780 780 779 779 778 778 777 776 775 775 774 773 773 772 772 771 771 770 770
760 761 761 761 762 762 763 763 764 765 766 766 767 768 769 770 771 771 772 773 773 774 775 776 777 779 780 781 781 782 782 782 782 782 782 782 782 782 782 782 782 782 781 781 781 781 781 780 780 779 778 778 777 777 776 776 775 774 773 772 772 771 771 770 770 770 769 768 768
761 761 762 763 763 764 764 765 765 766 767 767 768 769 770 771 771 772 772 773 774 775 776 777 778 779 780 780 781 781 781 781 781 781 781 781 781 781 781 781 781 780 780 780 780 780 779 779 778 777 776 776 776 775 774 774 773 772 771 771 770 769 769 768 768 767 767 766 766
761 762 763 763 764 765 765 765 766 767 767 768 769 770 770 771 771 772 773 773 774 775 776 777 778 779 779 780 780 780 780 780 780 780 780 780 780 780 780 779 779 779 778 778 778 778 777 777 776 776 775 774 774 773 772 772 771 770 769 769 768 767 766 766 766 765 765 764 764
762 762 763 764 764 765 765 766 766 767 768 769 769 770 771 771 772 772 773 774 775 776 777 777 778 778 779 779 779 779 779 779 779 779 779 779 779 778 778 778 777 777 777 776 776 776 776 775 775 774 773 772 771 771 771 770 769 768 768 767 766 765 765 764 764 763 763 762 761
762 763 764 764 764 765 766 766 767 768 768 769 769 770 770 771 772 773 774 775 775 776 776 777 777 778 778 778 778 778 778 778 778 778 778 777 777 777 776 776 776 776 775 775 775 774 774 773 773 772 771 771 770 769 768 768 767 766 766 765 764 763 763 762 762 761 761 760 760
763 764 764 764 765 765 766 766 767 768 769 769 770 770 770 771 772 773 774 774 775 776 776 776 776 777 777 777 777 777 777 777 777 776 776 776 776 775 775 775 774 774 774 773 773 772 772 771 771 770 769 769 768 767 766 766 765 765 764 763 762 762 761 760 760 759 759 758 758
764 764 765 765 765 766 766 767 768 768 769 769 770 770 770 771 772 772 773 774 774 775 775 776 776 776 776 776 776 776 776 776 776 775 775 774 774 773 773 773 772 772 772 771 771 771 770 769 769 768 767 767 766 765 765 764 763 762 762 761 761 760 759 758 758 757 757 756 756
765 765 766 766 766 766 767 767 768 769 769 769 770 770 771 771 772 772 773 773 774 774 774 775 775 775 775 775 775 775 775 775 774 774 773 773 772 772 771 771 771 771 770 770 769 769 768 767 767 766 766 765 764 763 763 762 761 761 760 759 758 758 757 756 756 755 755 754 753
766 766 766 767 767 767 767 768 768 769 769 770 770 770 771 771 772 772 772 773 773 773 774 774 774 774 774 774 774 774 774 773 773 772 771 771 771 770 770 770 769 769 768 768 767 767 766 765 765 764 764 763 762 761 761 760 759 758 757 757 756 756 755 754 754 753 753 752 751
767 767 767 767 767 768 768 768 769 769 770 770 770 771 771 771 771 772 772 772 773 773 773 773 773 773 773 773 773 772 772 772 771 771 770 770 769 769 768 768 767 767 766 766 766 765 764 763 763 762 761 761 760 759 758 757 757 756 755 755 754 753 752 752 751 751 751 750 749
767 768 768 768 768 768 768 769 769 770 770 770 771 771 771 771 771 771 772 772 772 772 772 772 772 772 772 772 771 771 771 770 770 769 769 768 768 767 767 766 766 765 765 764 764 763 762 761 761 760 759 759 758 757 756 755 754 753 753 752 751 751 750 750 749 749 748 748 747
768 768 768 768 768 768 769 769 770 770 770 770 770 771 771 771 771 771 771 771 771 771 771 771 771 771 771 771 770 770 769 769 768 768 767 767 766 766 765 765 764 763 763 762 761 761 760 759 759 758 757 756 755 755 754 753 752 751 750 749 749 748 748 747 747 746 746 746 745
768 768 768 768 768 769 769 770 770 770 770 770 770 770 771 771 771 771 771 771 771 771 771 771 771 770 770 769 769 768 768 767 766 766 766 765 765 764 764 763 762 762 761 760 760 759 758 757 756 756 755 754 753 752 751 750 750 749 748 747 746 746 745 745 744 744 744 743 743
768 768 768 769 769 769 770 770 770 770 770 770 770 770 770 770 770 770 770 770 770 770 770 769 769 769 768 768 767 767 766 766 765 765 764 764 763 762 762 761 761 760 759 758 758 757 756 756 755 754 753 752 751 750 749 748 747 746 746 745 744 743 743 742 742 741 741 741 740
768 768 769 769 770 770 770 771 771 770 770 770 770 770 770 770 769 769 769 769 769 769 769 768 768 767 767 766 766 766 765 764 764 763 762 762 761 761 760 759 759 758 757 756 756 755 755 754 753 752 751 750 749 748 747 746 746 745 744 743 742 741 741 740 740 739 739 738 738
768 769 769 770 770 770 771 770 770 770 769 769 769 769 769 769 769 768 768 768 768 768 767 767 767 766 766 765 765 764 763 763 762 761 761 760 759 759 758 758 757 756 755 755 754 753 753 752 751 751 749 748 747 746 745 744 744 743 742 741 741 740 739 738 737 737 736 736 736
768 769 769 770 770 770 770 770 769 769 768 768 768 768 768 768 768 768 767 767 767 767 766 766 765 765 764 764 763 762 762 761 761 760 759 758 758 757 756 756 755 754 754 753 752 751 751 750 749 749 748 746 746 744 743 742 741 741 740 739 739 738 737 736 736 735 734 734 734
768 768 769 769 769 769 769 768 768 768 767 767 767 768 767 767 767 767 767 766 766 766 765 764 764 763 763 762 761 761 760 760 759 758 758 757 756 755 754 754 753 752 752 751 751 750 749 748 747 746 746 745 744 742 741 741 740 739 738 737 737 736 736 735 734 733 733 732 731
767 768 768 768 768 767 767 767 767 767 767 767 767 767 767 767 766 766 766 766 765 764 764 763 762 762 761 761 760 759 759 758 757 757 756 755 754 753 753 752 751 751 750 749 749 748 747 746 745 744 744 743 742 741 740 739 738 737 736 736 735 735 734 733 732 731 731 730 729
766 766 766 766 766 766 766 766 766 766 766 766 766 766 766 766 766 766 765 765 764 763 762 761 761 760 760 759 759 758 757 756 756 755 754 753 752 751 751 750 749 749 748 747 746 746 745 744 743 742 741 741 740 739 738 737 736 735 734 734 733 732 732 731 730 730 729 728 727
765 765 765 765 765 765 765 766 766 766 766 766 766 766 765 765 765 765 764 763 762 761 761 760 760 759 758 758 757 756 756 755 754 753 752 751 751 750 749 748 747 747 746 745 745 744 743 742 741 741 740 739 738 737 736 735 734 733 732 731 731 730 730 729 728 727 726 726 725
765 765 765 765 765 765 765 765 765 765 765 765 765 765 765 764 764 763 762 761 761 760 759 759 758 757 757 756 756 755 754 753 752 752 751 750 749 748 747 746 746 745 744 743 743 742 741 740 739 738 738 737 736 735 734 733 732 731 730 729 729 728 727 726 725 724 723 722 722
764 764 765 764 764 764 764 764 764 765 765 764 764 764 764 763 762 761 761 760 759 759 758 757 757 756 756 755 754 753 752 751 751 750 749 748 747 746 745 744 744 743 742 741 741 740 739 738 737 736 736 735 734 733 732 731 730 729 728 727 726 725 724 723 722 721 720 720 719
764 764 764 764 764 764 764 764 764 764 764 764 763 763 762 762 761 760 759 759 758 758 757 756 756 755 754 753 753 752 751 750 749 748 747 747 746 745 744 742 742 741 741 740 739 738 737 736 736 735 734 733 732 731 730 729 727 726 726 724 723 722 721 721 720 719 718 717 716
764 763 763 763 763 763 763 763 763 763 763 763 762 762 761 760 760 759 758 758 757 756 756 755 755 754 753 752 751 750 749 748 747 747 746 745 744 743 742 741 740 740 739 738 737 736 736 735 734 733 732 731 730 729 727 726 725 724 723 722 721 720 719 718 717 716 715 714 714
763 763 763 763 763 763 763 763 763 762 762 762 761 761 760 759 758 758 757 756 756 755 754 754 753 752 751 751 750 749 748 747 746 745 744 743 742 741 740 739 738 738 737 736 736 735 734 733 732 731 730 729 728 726 726 724 723 722 721 720 719 717 716 716 714 713 712 711 711
763 763 763 763 763 763 763 762 762 762 761 761 760 759 758 758 757 756 756 755 755 754 753 752 752 751 750 749 748 747 746 746 745 744 743 742 741 740 738 737 736 736 735 735 734 733 732 731 730 729 728 727 726 725 724 722 721 720 719 718 716 715 714 713 711 710 709 708 708
763 763 763 763 763 762 762 762 761 761 760 759 759 758 757 756 756 755 755 754 754 753 752 751 750 749 748 748 747 746 745 744 743 742 741 740 739 738 737 736 735 734 734 733 732 731 730 729 728 727 726 725 724 723 721 720 719 718 716 715 714 713 711 710 709 707 706 705 705
763 763 763 763 762 761 761 761 760 759 759 758 757 756 756 755 755 754 754 753 753 752 751 750 749 748 747 746 745 744 743 742 742 741 740 739 738 737 736 735 733 732 732 731 731 730 729 728 727 726 725 724 722 721 720 718 717 716 714 713 712 710 709 708 706 705 704 703 702
763 763 762 762 761 761 760 759 759 758 757 756 756 756 755 754 754 753 753 752 751 751 750 748 747 746 746 745 744 743 741 741 740 739 738 737 736 736 735 733 732 731 730 730 729 728 727 726 725 724 723 722 721 720 718 717 715 714 712 711 710 708 707 706 705 704 703 702 701
763 762 761 761 760 759 759 758 757 757 756 756 755 755 754 753 753 752 751 751 750 749 748 747 746 745 744 743 742 741 740 739 738 738 737 736 735 734 733 732 731 730 729 728 728 727 726 725 724 723 722 721 720 718 717 715 714 712 711 710 709 707 706 705 704 703 702 701 700